SL-8 DEB, 1590

Orbit data source: Space-Track

SL-8 DEB, 1590 is space debris in LEO originally from a launch on Sat, 18 Sep 1965 UTC launched from the Tyuratam Missile And Space Complex (TTMTR). Debris objects in space refer to the collection of defunct objects orbiting the Earth. Examples of debris include non-operational satellites, rocket bodies, and fragments generated from explosions, collisions, or faulty payload assembly.

Loading next visibility...
Identifier
1590, 1965-073G
Orbit
LEO
Country
Flag of CISCIS
Related business
Manufacturer
Unknown
Mission
Spacecraft
Bus & Motor
Unknown
Mass
Unknown
Launch date (UTC)
1965-09-18 (61 years ago)
Launch vehicle
Unknown
Launch site
Tyuratam Missile And Space Complex (TTMTR)
Object type
Payload
Rocket body
Debris
Shape & HBR
Unknown shape, 0.1 m
Radar Cross Section
Small (<0.1 m²)

Expand to show TLE details & history
Last TLE update: 12 hours ago

TLE from 12 hours ago
0 SL-8 DEB
1  1590U 65073G   26123.69462615  .00000245  00000-0  21224-2 0  9993
2  1590  56.0853 215.5152 0172576 337.1199 177.7681 12.49819616752778
Epoch: 2026-05-03T16:40Z
TLE epoch observation values (Epoch: 2026-05-03T16:40:15.699Z)
Latitude
20.5946°
Longitude
-90.70676°
Altitude
1,601.234 km
Speed
7.01 km/s
True Right ascension
01h 23m 48s
True Declination
20° 29' 37"
Sunlit
Object was in daylight at epoch
Visualization orbit readout
Latitude
Unknown
Longitude
Unknown
Altitude
Unknown
Speed
Unknown
Apparent Right ascension
Unknown
Apparent Declination
Unknown
Sunlit
N/A
Visualization observer readout
Local Sidereal Time
12:10:17
Azimuth
Unknown
Elevation
Unknown
Doppler factor
Unknown
Orbital elements
Apogee altitude
1,600.424 km
Perigee altitude
1,329.714 km
Semi-major axis
7,843.206 km
Eccentricity
0.01726
Inclination
56.0853°
RAAN
215.5152°
Arg. of periapsis
337.1199°
True anomaly
177.84349°
Mean anomaly
177.7681°
Eccentric anomaly
177.80595°
Mean motion
3.12466 °/min
Orbital period
115.21 mins
BSTAR
0.0021224
Loading maneuver chart data...
Computing Atmospheric mass density...
Loading historical data...
Loading historical data...
Loading historical data...
Loading historical data...
Loading historical data...
Loading historical data...
Loading historical data...

Documentation

Showing up to 5 results
|